Retour au catalogue

OPS 7898

P/L 4

ActifMilitaireLEO
NORAD 5682·PAYLOAD·🇺🇸 United States

Lancé Dec 14, 1971 depuis Vandenberg Space Force Base

Loading…

Prochains Passages (prochaines 24 heures)

TLE

FraisSource: Space-Track

Époque: Sep 14, 2026, 04:58 UTC

1 05682U 71110E   26257.20741334 -.00000010  00000-0  42656-4 0  9996
2 05682  69.9895 182.5026 0006082  45.4801 314.6789 13.74658947357413

Suivez OPS 7898 en temps réel avec AllMySat

Download on the App Store